Home   Weather   Salisbury   Past weeks
Flag for United Kingdom

Past Weather in Salisbury, England, United Kingdom — Yesterday and Last 2 Weeks

Now
48 °F

Passing clouds.


Feels Like: 46 °F
Forecast: 68 / 46 °F
Wind: 5 mph from South

Location: Boscombe Down

Current Time: May 23, 2019 at 12:57:19 am

Latest Report: May 22, 2019 at 11:50 pm


Visibility: N/A

Pressure: 30.07 "Hg

Humidity: 76%

Dew Point: 41 °F

Location of SalisburyLocation

Past Weather in Salisbury — Graph

°F

Salisbury Temperature Yesterday

Maximum temperature yesterday: 68 °F (at 1:50 pm)
Minimum temperature yesterday: 46 °F (at 2:50 am)
Average temperature yesterday: 57 °F

High & Low Weather Summary for the Past Weeks

 TemperatureHumidityPressure
High68 °F (May 22, 1:50 pm)100% (May 8, 4:50 am)30.72 "Hg (May 8, 4:50 am)
Low37 °F (May 10, 5:50 am)31% (May 13, 6:50 pm)29.24 "Hg (May 8, 12:50 pm)
Average53 °F72%30.00 "Hg
* Reported May 7 11:50 pm — May 22 11:50 pm, Salisbury. Weather by CustomWeather, © 2019

Note: Actual official high and low records may vary slightly from our data, if they occured in-between our weather recording intervals... More about our weather records

Advertising

Salisbury Weather History for the Previous 24 Hours

Scroll right to see more
 ConditionsComfort  
Time TempWeatherWind HumidityBarometerVisibility
11:50 pm
Wed, May 22
48 °FPassing clouds.5 mph76%30.07 "HgN/A
10:50 pm50 °FCool.5 mph71%30.07 "HgN/A
9:50 pm54 °FCool.7 mph63%30.09 "HgN/A
8:50 pm57 °FRefreshingly cool.6 mph51%30.07 "HgN/A
7:50 pm59 °FRefreshingly cool.9 mph48%30.07 "HgN/A
6:50 pm64 °FMild.10 mph43%30.07 "HgN/A
5:50 pm66 °FSunny.13 mph43%30.07 "Hg10 mi
4:50 pm66 °FSunny.12 mph43%30.07 "Hg10 mi
3:50 pm66 °FSunny.9 mph46%30.09 "Hg10 mi
2:50 pm66 °FSunny.9 mph46%30.09 "Hg10 mi
1:50 pm68 °FSunny.8 mph46%30.09 "Hg10 mi
12:50 pm66 °FSunny.9 mph49%30.12 "Hg10 mi
11:50 am64 °FSunny.7 mph43%30.12 "Hg10 mi
10:50 am61 °FPartly sunny.5 mph48%30.12 "HgN/A
9:50 am61 °FPartly sunny.3 mph48%30.12 "HgN/A
8:50 am57 °FOvercast.3 mph59%30.12 "HgN/A
7:50 am52 °FSunny.5 mph77%30.12 "Hg10 mi
6:50 am48 °FSunny.5 mph87%30.12 "Hg10 mi
5:50 am46 °FOvercast.5 mph82%30.12 "HgN/A
4:50 am46 °FPassing clouds.6 mph82%30.12 "HgN/A
3:50 am46 °FPassing clouds.6 mph82%30.12 "HgN/A
2:50 am46 °FPassing clouds.7 mph87%30.12 "HgN/A
1:50 am50 °FPassing clouds.3 mph82%30.12 "HgN/A
12:50 am50 °FPassing clouds.3 mph76%30.12 "HgN/A
Weather by CustomWeather, © 2019

See weather overview